Flag for United Kingdom Weather past 2 weeks in Saint Helier, Jersey, United Kingdom

Now
52 °F

Clear.


Feels Like: 50 °F
Forecast: 58 / 65 °F
Wind: 6 mph from Southwest

Location: Dinard Airport

Current Time: Aug 22, 2014 at 3:37:50 AM

Latest Report: Aug 22, 2014 at 3:00 AM


Visibility: N/A

Pressure: 29.98 "Hg

Humidity: 82%

Dew point: 46 °F

Location of Saint HelierLocation

Historic Weather in Saint Helier — Graph

°F

Saint Helier temperature yesterday

Maximum temperature yesterday: 68 °F (at 2:30 PM)
Minimum temperature yesterday: 46 °F (at 6:00 AM)
Average temperature yesterday: 57 °F

Past Weeks' High & Low Weather Summary

 TemperatureHumidityPressure
High72 °F (Aug 9, 2:00 PM)100% (Aug 8, 3:00 AM)30.27 "Hg (Aug 8, 3:00 AM)
Low46 °F (Aug 21, 6:00 AM)46% (Aug 21, 12:30 PM)29.50 "Hg (Aug 10, 7:30 AM)
Average61 °F77%29.95 "Hg
* Reported Aug 7 2:00 AM — Aug 22 2:00 AM, Saint Helier, Weather by CustomWeather, © 2014

Note: Actual official high and low records may vary slightly from our data, if they occured in-between our weather recording intervals... More about our weather records

Advertising

Saint Helier weather history for previous 24 hours

 ConditionsComfort  
Time TempWeatherWind HumidityBarometerVisibility
2:00 AM
Aug 22
52 °FClear.6 mph82%30.01 "HgN/A
1:30 AM52 °FClear.5 mph77%30.01 "HgN/A
1:00 AM52 °FClear.6 mph82%30.01 "HgN/A
12:30 AM52 °FClear.6 mph82%30.01 "HgN/A
12:00 AM52 °FClear.5 mph82%30.01 "HgN/A
11:30 PM
Aug 21
52 °FClear.6 mph82%30.04 "HgN/A
11:00 PM52 °FClear.5 mph82%30.04 "HgN/A
10:30 PM54 °FClear.3 mph77%30.04 "HgN/A
10:00 PM57 °FClear.3 mph67%30.04 "HgN/A
9:30 PM57 °FMostly cloudy.6 mph67%30.04 "HgN/A
9:00 PM59 °FClear.6 mph63%30.04 "HgN/A
8:30 PM59 °FClear.7 mph63%30.04 "HgN/A
8:00 PM59 °FOvercast.8 mph63%30.01 "HgN/A
7:30 PM59 °FPartly sunny.8 mph68%30.01 "HgN/A
7:00 PM61 °FPartly sunny.10 mph63%30.01 "HgN/A
6:30 PM63 °FPartly sunny.10 mph68%30.01 "HgN/A
6:00 PM63 °FBroken clouds.10 mph68%30.01 "HgN/A
5:30 PM64 °FClear.10 mph64%30.01 "HgN/A
5:00 PM64 °FClear.10 mph60%30.04 "HgN/A
4:30 PM64 °FClear.6 mph56%30.01 "HgN/A
4:00 PM64 °FClear.6 mph56%30.04 "HgN/A
3:30 PM64 °FClear.6 mph56%30.04 "HgN/A
3:00 PM64 °FClear.6 mph56%30.04 "HgN/A
2:30 PM68 °FClear.5 mph49%30.04 "HgN/A
2:00 PM64 °FOvercast.3 mph56%30.07 "HgN/A
1:30 PM63 °FClear.7 mph59%30.07 "HgN/A
1:00 PM66 °FClear.5 mph56%30.07 "HgN/A
12:30 PM66 °FClear.9 mph46%30.07 "HgN/A
12:00 PM64 °FBroken clouds.7 mph49%30.07 "HgN/A
11:30 AM64 °FPartly sunny.8 mph56%30.07 "HgN/A
11:00 AM64 °FClear.7 mph52%30.09 "HgN/A
10:30 AM63 °FClear.6 mph56%30.09 "HgN/A
10:00 AM63 °FClear.6 mph59%30.09 "HgN/A
9:30 AM61 °FClear.6 mph68%30.09 "HgN/A
9:00 AM59 °FClear.6 mph77%30.09 "HgN/A
8:30 AM57 °FClear.7 mph77%30.09 "HgN/A
8:00 AM55 °FClear.5 mph82%30.09 "HgN/A
7:30 AM52 °FClear.5 mph88%30.09 "HgN/A
7:00 AM50 °FClear.6 mph94%30.09 "HgN/A
6:30 AM48 °FClear.5 mph94%30.09 "HgN/A
6:00 AM46 °FClear.5 mph93%30.09 "HgN/A
5:30 AM48 °FClear.5 mph87%30.09 "HgN/A
5:00 AM48 °FClear.3 mph87%30.09 "HgN/A
4:30 AM48 °FClear.5 mph87%30.09 "HgN/A
4:00 AM48 °FClear.5 mph87%30.09 "HgN/A
3:30 AM48 °FClear.5 mph87%30.09 "HgN/A
3:00 AM48 °FClear.5 mph87%30.09 "HgN/A
Weather by CustomWeather, © 2014

See weather overviewHow to use our weather pages